Regional Weather Roundup
Issued by NWS Sioux Falls, SD

Home | Current Version | Previous Version | Graphics & Text | Print | Product List | Glossary Off
Versions: 1 2 3 4 5 6 7 8 9 10 11 12 13 14 15 16 17 18 19 20 21 22 23 24 25 26 27 28 29 30 31 32 33 34 35 36 37 38 39 40 41 42 43 44 45 46 47 48 49 50

000
ASUS43 KFSD 300602
RWRFSD

WEATHER ROUNDUP FOR SE SOUTH DAKOTA/SW MINNESOTA/NW IOWA
NATIONAL WEATHER SERVICE SIOUX FALLS SD
100 AM CDT THU OCT 30 2014

NOTE: "FAIR" INDICATES FEW OR NO CLOUDS BELOW 12,000 FEET WITH NO
SIGNIFICANT WEATHER AND OR OBSTRUCTIONS TO VISIBILITY.


SDZ038>040-050-052>070-300700-
SOUTHEAST SOUTH DAKOTA

CITY           SKY/WX    TMP DP  RH WIND       PRES   REMARKS
CHAMBERLAIN    CLEAR     44  31  59 W8        29.98S
6HR MIN TEMP:  36; 6HR MAX TEMP:  51;

HURON          CLOUDY    46  33  60 S7        29.96R
6HR MIN TEMP:  46; 6HR MAX TEMP:  50;

MADISON        CLOUDY    46  32  57 S12       29.96F
MITCHELL       CLOUDY    47  34  60 S5        29.97S
6HR MIN TEMP:  45; 6HR MAX TEMP:  49;

SIOUX FALLS    CLOUDY    47  32  56 S10       29.99S
6HR MIN TEMP:  44; 6HR MAX TEMP:  48;

WINNER         FAIR      46  28  49 W12       30.02R
YANKTON        CLOUDY    46  34  61 SE7       29.99F
$$

MNZ071-072-080-081-089-090-097-098-300700-
SOUTHWEST MINNESOTA

CITY           SKY/WX    TMP DP  RH WIND       PRES   REMARKS
FAIRMONT       CLOUDY    39  30  70 S8        30.04F
JACKSON        CLOUDY    43  32  65 S9        30.03S
LUVERNE        CLOUDY    45  34  65 S8        30.00F
MARSHALL       CLOUDY    39  34  81 E8        30.01R
6HR MIN TEMP:  39; 6HR MAX TEMP:  46;

MONTEVIDEO     LGT RAIN  39  36  87 CALM      30.04S
PIPESTONE      CLOUDY    45  32  61 S5        29.98F
REDWOOD FALLS  CLOUDY    40  32  73 SE3       30.03S
TRACY          CLOUDY    47  32  57 SW7       30.01R
WINDOM         CLOUDY    43  34  70 CALM      30.02F
WORTHINGTON    CLOUDY    45  30  57 S10       30.01F
$$

IAZ001>003-012>014-020>022-031-032-NEZ013-014-SDZ071-300700-
NORTHWEST IOWA

CITY           SKY/WX    TMP DP  RH WIND       PRES   REMARKS
CHEROKEE       CLOUDY    44  36  74 S8        30.03F
DENISON        MOCLDY    41  34  75 CALM      30.04S
ESTHERVILLE    CLOUDY    41  31  67 S8        30.03F
LE MARS        CLOUDY    48  34  57 S10       30.02F
ORANGE CITY    CLOUDY    48  30  49 SE3       30.02S
SHELDON        CLOUDY    45  34  65 SE6       30.01S
SIOUX CITY     CLOUDY    45  34  65 SE5       30.05R
6HR MIN TEMP:  39; 6HR MAX TEMP:  47;

SPENCER        CLOUDY    42  34  73 S3        30.04F
6HR MIN TEMP:  36; 6HR MAX TEMP:  42;

STORM LAKE     CLOUDY    43  34  70 NW5       30.06R
$$

ABBREVIATIONS USED IN REMARKS
   TC - TEMPERATURE IN CELSIUS
  WCI - WIND CHILL INDEX
   HX - HEAT INDEX
  VSB - VISIBILITY




USA.gov is the U.S. government's official web portal to all federal, state and local government web resources and services.